Location: Bauerbach
(50.4985°N, 10.3912°E)
Time: 08:24:54
(UTC+00:00)

AQUARIUS - Pass Details

Date: 13 January 2026
Orbit: 633 x 636 km, 98.0° (Epoch: 16 February)

Event Time Altitude Azimuth Distance (km) Brightness Sun altitude
Rises 06:12:37 0° 14° (NNE) 2,948 7.4 -9.5°
Reaches altitude 10° 06:14:50 10° 14° (NNE) 2,034 6.6 -9.2°
Maximum altitude 06:19:16 88° 103° (ESE) 643 4.2 -8.5°
Drops below altitude 10° 06:23:41 10° 195° (SSW) 2,016 6.8 -7.9°
Sets 06:25:52 0° 195° (SSW) 2,919 7.6 -7.6°
